TimeEST,TemperatureF,Dew PointF,Humidity,Sea Level PressureIn,VisibilityMPH,Wind Direction,Wind SpeedMPH,Gust SpeedMPH,PrecipitationIn,Events,Conditions,WindDirDegrees,DateUTC
12:15 AM,51.8,40.5,65,30.08,10.0,North,3.5,-,N/A,,Clear,350,2013-11-03 04:15:00
12:35 AM,51.1,40.5,67,30.08,10.0,North,3.5,-,N/A,,Clear,350,2013-11-03 04:35:00
12:55 AM,51.3,40.3,66,30.09,10.0,NNW,3.5,-,N/A,,Clear,340,2013-11-03 04:55:00
1:15 AM,48.4,40.1,73,30.09,10.0,Calm,Calm,-,N/A,,Clear,0,2013-11-03 05:15:00
1:35 AM,46.8,40.5,79,30.09,10.0,Calm,Calm,-,N/A,,Clear,0,2013-11-03 05:35:00
1:55 AM,45.5,41.4,85,30.09,10.0,Calm,Calm,-,N/A,,Clear,0,2013-11-03 05:55:00
1:15 AM,44.2,40.1,85,30.10,10.0,Calm,Calm,-,N/A,,Clear,0,2013-11-03 06:15:00
1:35 AM,44.8,40.5,85,30.10,10.0,Calm,Calm,-,N/A,,Clear,0,2013-11-03 06:35:00
1:55 AM,42.8,39.2,87,30.10,10.0,Calm,Calm,-,N/A,,Clear,0,2013-11-03 06:55:00
2:15 AM,40.8,39.9,97,30.11,10.0,Calm,Calm,-,N/A,,Clear,0,2013-11-03 07:15:00
2:35 AM,42.3,39.4,90,30.11,10.0,Calm,Calm,-,N/A,,Clear,0,2013-11-03 07:35:00
2:55 AM,41.4,39.0,91,30.12,10.0,Calm,Calm,-,N/A,,Clear,0,2013-11-03 07:55:00
3:15 AM,41.0,39.2,93,30.12,10.0,Calm,Calm,-,N/A,,Clear,0,2013-11-03 08:15:00
3:35 AM,40.8,38.8,93,30.12,10.0,Calm,Calm,-,N/A,,Clear,0,2013-11-03 08:35:00
3:55 AM,39.4,38.3,96,30.12,10.0,Calm,Calm,-,N/A,,Clear,0,2013-11-03 08:55:00
4:15 AM,39.0,38.1,97,30.12,10.0,Calm,Calm,-,N/A,,Clear,0,2013-11-03 09:15:00
4:35 AM,38.3,37.2,96,30.13,10.0,Calm,Calm,-,N/A,,Clear,0,2013-11-03 09:35:00
4:55 AM,38.3,37.9,99,30.14,1.0,Calm,Calm,-,N/A,,Mist,0,2013-11-03 09:55:00
5:15 AM,38.3,37.8,98,30.16,7.0,Calm,Calm,-,N/A,,Clear,0,2013-11-03 10:15:00
5:35 AM,37.0,35.8,95,30.16,10.0,Calm,Calm,-,N/A,,Clear,0,2013-11-03 10:35:00
5:55 AM,36.5,36.5,100,30.17,0.5,Calm,Calm,-,N/A,Fog,Fog,0,2013-11-03 10:55:00
6:15 AM,36.5,36.5,100,30.17,0.5,Calm,Calm,-,N/A,Fog,Fog,0,2013-11-03 11:15:00
6:35 AM,36.5,36.3,99,30.18,10.0,Calm,Calm,-,N/A,,Clear,0,2013-11-03 11:35:00
6:55 AM,36.3,36.1,99,30.18,5.0,Calm,Calm,-,N/A,,Clear,0,2013-11-03 11:55:00
7:15 AM,36.9,36.5,99,30.19,10.0,Calm,Calm,-,N/A,,Clear,0,2013-11-03 12:15:00
7:35 AM,37.4,36.7,97,30.20,10.0,Calm,Calm,-,N/A,,Clear,0,2013-11-03 12:35:00
7:55 AM,43.0,41.5,95,30.20,10.0,Calm,Calm,-,N/A,,Clear,0,2013-11-03 12:55:00
8:15 AM,46.9,43.0,86,30.21,10.0,North,4.6,-,N/A,,Clear,10,2013-11-03 13:15:00
8:35 AM,48.6,43.0,81,30.22,10.0,NNE,10.4,-,N/A,,Clear,20,2013-11-03 13:35:00
8:55 AM,50.0,43.0,77,30.23,10.0,North,6.9,-,N/A,,Clear,10,2013-11-03 13:55:00
9:15 AM,51.4,43.0,73,30.24,10.0,NNE,8.1,-,N/A,,Clear,30,2013-11-03 14:15:00
9:35 AM,52.3,42.8,70,30.24,10.0,NE,6.9,-,N/A,,Clear,40,2013-11-03 14:35:00
9:55 AM,54.3,43.2,66,30.25,10.0,NNE,8.1,-,N/A,,Clear,20,2013-11-03 14:55:00
10:15 AM,56.1,43.0,61,30.25,10.0,NNE,6.9,-,N/A,,Clear,20,2013-11-03 15:15:00
10:35 AM,57.2,42.8,59,30.25,10.0,North,6.9,-,N/A,,Clear,360,2013-11-03 15:35:00
10:55 AM,58.6,41.9,54,30.25,10.0,NE,4.6,-,N/A,,Clear,40,2013-11-03 15:55:00
11:15 AM,59.9,41.2,50,30.24,10.0,NNE,5.8,-,N/A,,Clear,30,2013-11-03 16:15:00
11:35 AM,60.8,40.1,46,30.24,10.0,North,4.6,-,N/A,,Clear,360,2013-11-03 16:35:00
11:55 AM,61.5,39.4,44,30.24,10.0,NNW,6.9,-,N/A,,Clear,340,2013-11-03 16:55:00
12:15 PM,62.6,37.6,40,30.23,10.0,NE,5.8,-,N/A,,Clear,40,2013-11-03 17:15:00
12:35 PM,63.7,34.9,34,30.21,10.0,NE,8.1,-,N/A,,Clear,50,2013-11-03 17:35:00
12:55 PM,63.7,34.3,34,30.21,10.0,ENE,5.8,-,N/A,,Clear,70,2013-11-03 17:55:00
1:15 PM,64.4,34.3,33,30.20,10.0,North,5.8,-,N/A,,Clear,10,2013-11-03 18:15:00
1:35 PM,64.2,34.2,33,30.19,10.0,ENE,3.5,-,N/A,,Clear,60,2013-11-03 18:35:00
1:55 PM,64.4,34.3,33,30.19,10.0,ENE,4.6,-,N/A,,Clear,70,2013-11-03 18:55:00
2:15 PM,65.1,35.1,33,30.19,10.0,NE,9.2,-,N/A,,Clear,50,2013-11-03 19:15:00
2:35 PM,65.5,34.5,32,30.18,10.0,North,4.6,-,N/A,,Clear,360,2013-11-03 19:35:00
2:55 PM,65.5,33.6,31,30.17,10.0,NNE,4.6,-,N/A,,Clear,20,2013-11-03 19:55:00
3:15 PM,65.7,35.1,32,30.17,10.0,ENE,8.1,-,N/A,,Clear,70,2013-11-03 20:15:00
3:35 PM,65.7,35.2,32,30.18,10.0,ENE,5.8,-,N/A,,Clear,70,2013-11-03 20:35:00
3:55 PM,65.7,35.1,32,30.17,10.0,NE,5.8,-,N/A,,Clear,50,2013-11-03 20:55:00
4:15 PM,65.3,35.4,33,30.17,10.0,East,3.5,-,N/A,,Clear,80,2013-11-03 21:15:00
4:35 PM,64.6,34.0,32,30.17,10.0,Calm,Calm,-,N/A,,Clear,0,2013-11-03 21:35:00
4:55 PM,64.4,34.5,33,30.17,10.0,East,3.5,-,N/A,,Clear,90,2013-11-03 21:55:00
5:15 PM,63.7,35.6,35,30.17,10.0,Calm,Calm,-,N/A,,Clear,0,2013-11-03 22:15:00
5:35 PM,61.3,38.7,43,30.19,10.0,Calm,Calm,-,N/A,,Clear,0,2013-11-03 22:35:00
5:55 PM,56.1,40.5,56,30.20,10.0,Calm,Calm,-,N/A,,Clear,0,2013-11-03 22:55:00
6:15 PM,52.2,42.8,70,30.20,10.0,Calm,Calm,-,N/A,,Clear,0,2013-11-03 23:15:00
6:35 PM,51.4,42.4,71,30.21,10.0,Calm,Calm,-,N/A,,Clear,0,2013-11-03 23:35:00
6:55 PM,47.8,41.5,79,30.21,10.0,Calm,Calm,-,N/A,,Clear,0,2013-11-03 23:55:00
7:15 PM,46.6,41.0,81,30.22,10.0,Calm,Calm,-,N/A,,Clear,0,2013-11-04 00:15:00
7:35 PM,45.5,41.0,84,30.22,10.0,Calm,Calm,-,N/A,,Clear,0,2013-11-04 00:35:00
7:55 PM,45.0,41.4,87,30.23,10.0,Calm,Calm,-,N/A,,Clear,0,2013-11-04 00:55:00
8:15 PM,44.1,41.5,91,30.23,10.0,Calm,Calm,-,N/A,,Clear,0,2013-11-04 01:15:00
8:35 PM,43.5,41.9,94,30.24,10.0,Calm,Calm,-,N/A,,Clear,0,2013-11-04 01:35:00
8:55 PM,43.0,41.4,94,30.24,10.0,Calm,Calm,-,N/A,,Clear,0,2013-11-04 01:55:00
9:15 PM,44.1,41.4,90,30.24,10.0,Calm,Calm,-,N/A,,Clear,0,2013-11-04 02:15:00
9:35 PM,43.2,41.0,92,30.25,10.0,Calm,Calm,-,N/A,,Clear,0,2013-11-04 02:35:00
9:55 PM,41.4,39.7,94,30.26,10.0,Calm,Calm,-,N/A,,Clear,0,2013-11-04 02:55:00
10:15 PM,42.3,40.5,93,30.26,10.0,Calm,Calm,-,N/A,,Clear,0,2013-11-04 03:15:00
10:35 PM,41.0,39.4,94,30.27,10.0,Calm,Calm,-,N/A,,Clear,0,2013-11-04 03:35:00
10:55 PM,42.1,40.6,95,30.28,10.0,Calm,Calm,-,N/A,,Clear,0,2013-11-04 03:55:00